OK,61,85,1015,61,2014-10-01T01:40:00,0,28072785,195312
OK,61,85,1015,61,2014-10-01T01:45:00,0,28073232,195312
OK,61,85,1015,61,2014-10-01T01:50:00,0,28073680,195312
OK,61,85,1015,61,2014-10-01T01:55:00,0,28073998,195312
OK,61,85,1015,61,2014-10-01T02:05:00,0,28074887,195312
OK,61,85,1015,61,2014-10-01T02:10:00,0,28075336,195312
OK,61,85,1015,61,2014-10-01T02:15:00,0,28075785,195312
OK,61,85,1015,61,2014-10-01T02:20:00,0,28076168,195312
OK,61,85,1015,61,2014-10-01T02:25:00,0,28076617,195312
OK,73,71,1015,73,2014-10-01T02:30:00,1,28077066,195312
OK,73,71,1015,73,2014-10-01T02:35:00,0,28077515,195312
OK,73,71,1015,73,2014-10-01T02:40:00,0,28077918,195312
OK,73,71,1015,73,2014-10-01T02:45:00,0,28078367,195312
OK,73,71,1015,73,2014-10-01T02:50:00,0,28078812,195312
OK,73,71,1015,73,2014-10-01T02:55:00,0,28079261,195312
OK,73,71,1015,73,2014-10-01T03:00:00,0,28079703,195312
OK,73,71,1015,73,2014-10-01T03:05:00,0,28080152,195312
OK,73,71,1015,73,2014-10-01T03:10:00,0,28080486,195312
OK,66,79,1015,66,2014-10-01T03:15:00,1,28080935,195312
OK,69,75,1015,69,2014-10-01T03:20:00,2,28081384,195312
OK,73,71,1015,73,2014-10-01T03:25:00,2,28081831,195312
OK,73,71,1015,73,2014-10-01T03:30:00,0,28082280,195312
OK,72,72,1015,72,2014-10-01T03:35:00,1,28082713,195312
OK,74,70,1015,74,2014-10-01T03:40:00,2,28083145,195312
OK,75,69,1015,75,2014-10-01T03:45:00,0,28083594,195312
OK,85,61,1015,85,2014-10-01T03:50:00,1,28084043,195312
OK,85,61,1015,85,2014-10-01T03:55:00,1,28084484,195312
OK,73,71,1015,73,2014-10-01T04:00:00,1,28084909,195312
OK,94,55,1015,94,2014-10-01T04:05:00,3,28085358,195312
OK,84,62,1015,84,2014-10-01T04:10:00,1,28085803,195312
OK,111,47,1015,111,2014-10-01T04:15:00,1,28086252,195312
OK,97,53,1015,97,2014-10-01T04:20:00,3,28086694,195312
OK,97,53,1015,97,2014-10-01T04:25:00,5,28087143,195312
OK,90,58,1015,90,2014-10-01T04:30:00,5,28087588,195312
OK,90,58,1015,90,2014-10-01T04:35:00,7,28088037,195312
OK,100,52,1015,100,2014-10-01T04:40:00,12,28088461,195312
OK,104,50,1015,104,2014-10-01T04:45:00,7,28088910,195312
OK,106,49,1015,106,2014-10-01T04:50:00,5,28089340,195312
OK,106,49,1015,106,2014-10-01T04:55:00,10,28089789,195312
OK,105,49,1015,105,2014-10-01T05:00:00,11,28090238,195312
OK,103,50,1015,103,2014-10-01T05:05:00,8,28090582,195312
OK,115,45,1015,115,2014-10-01T05:10:00,6,28091031,195312
OK,108,48,1015,108,2014-10-01T05:15:00,12,28091480,195312
OK,109,48,1015,109,2014-10-01T05:20:00,16,28091897,195312
OK,112,46,1015,112,2014-10-01T05:25:00,15,28092346,195312
OK,121,43,1015,121,2014-10-01T05:30:00,15,28092790,195312
OK,115,45,1015,115,2014-10-01T05:35:00,16,28093231,195312
OK,98,53,1015,98,2014-10-01T05:40:00,7,28093662,195312
OK,108,48,1015,108,2014-10-01T05:45:00,9,28094111,195312
OK,107,48,1015,107,2014-10-01T05:50:00,13,28094522,195312
OK,117,44,1015,117,2014-10-01T05:55:00,18,28094967,195312
OK,112,46,1015,112,2014-10-01T06:00:00,12,28095414,195312
OK,99,52,1015,99,2014-10-01T06:05:00,7,28095863,195312
OK,109,48,1015,109,2014-10-01T06:10:00,11,28096276,195312
OK,112,46,1015,112,2014-10-01T06:15:00,10,28096725,195312
OK,92,56,1015,92,2014-10-01T06:20:00,5,28097159,195312
OK,107,48,1015,107,2014-10-01T06:25:00,9,28097608,195312
OK,87,60,1015,87,2014-10-01T06:30:00,12,28098057,195312
OK,85,61,1015,85,2014-10-01T06:35:00,8,28098494,195312
OK,106,49,1015,106,2014-10-01T06:40:00,5,28098938,195312
OK,98,53,1015,98,2014-10-01T06:45:00,8,28099386,195312
OK,91,57,1015,91,2014-10-01T06:50:00,4,28099729,195312
OK,99,52,1015,99,2014-10-01T06:55:00,2,28100178,195312
OK,90,58,1015,90,2014-10-01T07:00:00,3,28100485,195312
OK,98,53,1015,98,2014-10-01T07:10:00,2,28101305,195312
OK,105,49,1015,105,2014-10-01T07:15:00,5,28101754,195312
OK,105,49,1015,105,2014-10-01T07:20:00,5,28102190,195312
OK,93,56,1015,93,2014-10-01T07:25:00,9,28102639,195312
OK,90,58,1015,90,2014-10-01T07:30:00,8,28103067,195312
OK,69,75,1015,69,2014-10-01T07:35:00,4,28103513,195312
OK,82,63,1015,82,2014-10-01T07:40:00,4,28103958,195312
OK,84,62,1015,84,2014-10-01T07:45:00,5,28104403,195312
OK,84,62,1015,84,2014-10-01T07:50:00,4,28104844,195312
OK,92,56,1015,92,2014-10-01T07:55:00,3,28105289,195312
OK,87,60,1015,87,2014-10-01T08:00:00,6,28105729,195312
OK,87,60,1015,87,2014-10-01T08:05:00,6,28106178,195312
OK,99,52,1015,99,2014-10-01T08:10:00,6,28106615,195312
OK,98,53,1015,98,2014-10-01T08:15:00,7,28107021,195312
OK,100,52,1015,100,2014-10-01T08:20:00,8,28107453,195312
OK,84,62,1015,84,2014-10-01T08:25:00,12,28107902,195312
OK,86,60,1015,86,2014-10-01T08:30:00,11,28108341,195312
OK,102,51,1015,102,2014-10-01T08:35:00,6,28108790,195312
OK,84,62,1015,84,2014-10-01T08:40:00,9,28109218,195312
OK,86,60,1015,86,2014-10-01T08:45:00,11,28109667,195312
OK,92,56,1015,92,2014-10-01T08:50:00,3,28110010,195312
OK,93,56,1015,93,2014-10-01T08:55:00,6,28110459,195312
OK,94,55,1015,94,2014-10-01T09:00:00,5,28110882,195312
OK,100,52,1015,100,2014-10-01T09:05:00,7,28111331,195312
OK,89,58,1015,89,2014-10-01T09:10:00,12,28111760,195312
OK,95,55,1015,95,2014-10-01T09:15:00,9,28112209,195312
OK,103,50,1015,103,2014-10-01T09:20:00,10,28112550,195312
OK,90,58,1015,90,2014-10-01T09:25:00,11,28112999,195312
OK,85,61,1015,85,2014-10-01T09:30:00,6,28113423,195312
OK,152,34,1015,152,2014-10-01T09:35:00,1,28113872,195312
OK,117,44,1015,117,2014-10-01T09:40:00,4,28114304,195312
OK,88,59,1015,88,2014-10-01T09:45:00,9,28114753,195312
OK,78,67,1015,78,2014-10-01T09:50:00,7,28115107,195312
OK,102,51,1015,102,2014-10-01T10:00:00,17,28115968,195312
OK,103,50,1015,103,2014-10-01T10:05:00,10,28116417,195312
OK,106,49,1015,106,2014-10-01T10:10:00,8,28116825,195312
OK,109,48,1015,109,2014-10-01T10:15:00,6,28117274,195312
OK,119,43,1015,119,2014-10-01T10:20:00,5,28117699,195312
OK,111,47,1015,111,2014-10-01T10:25:00,0,28118148,195312
OK,105,49,1015,105,2014-10-01T10:30:00,8,28118593,195312
OK,106,49,1015,106,2014-10-01T10:35:00,7,28119040,195312
OK,94,55,1015,94,2014-10-01T10:40:00,9,28119484,195312
OK,97,53,1015,97,2014-10-01T10:45:00,10,28119932,195312
OK,94,55,1015,94,2014-10-01T10:50:00,4,28120380,195312
OK,96,54,1015,96,2014-10-01T10:55:00,7,28120829,195312
OK,85,61,1015,85,2014-10-01T11:00:00,8,28121212,195312
OK,93,56,1015,93,2014-10-01T11:05:00,7,28121661,195312
OK,100,52,1015,100,2014-10-01T11:10:00,7,28122099,195312
OK,97,53,1015,97,2014-10-01T11:15:00,9,28122548,195312
OK,98,53,1015,98,2014-10-01T11:20:00,12,28122989,195312
OK,102,51,1015,102,2014-10-01T11:25:00,9,28123438,195312
OK,108,48,1015,108,2014-10-01T11:30:00,8,28123870,195312
OK,113,46,1015,113,2014-10-01T11:35:00,13,28124319,195312
OK,109,48,1015,109,2014-10-01T11:40:00,9,28124721,195312
OK,103,50,1015,103,2014-10-01T11:45:00,7,28125170,195312
OK,100,52,1015,100,2014-10-01T11:50:00,9,28125599,195312
OK,92,56,1015,92,2014-10-01T11:55:00,5,28126048,195312
OK,84,62,1015,84,2014-10-01T12:00:00,6,28126400,195312
OK,100,52,1015,100,2014-10-01T12:10:00,13,28127298,195312
OK,98,53,1015,98,2014-10-01T12:15:00,12,28127747,195312
OK,100,52,1015,100,2014-10-01T12:20:00,12,28128175,195312
OK,100,52,1015,100,2014-10-01T12:25:00,13,28128624,195312
OK,107,48,1015,107,2014-10-01T12:30:00,11,28129059,195312
OK,105,49,1015,105,2014-10-01T12:35:00,13,28129508,195312
OK,105,49,1015,105,2014-10-01T12:40:00,16,28129942,195312
OK,108,48,1015,108,2014-10-01T12:45:00,12,28130391,195312
OK,121,43,1015,121,2014-10-01T12:50:00,15,28130819,195312
OK,101,51,1015,101,2014-10-01T12:55:00,14,28131268,195312
OK,97,53,1015,97,2014-10-01T13:00:00,12,28131705,195312
OK,110,47,1015,110,2014-10-01T13:05:00,14,28132154,195312
OK,110,47,1015,110,2014-10-01T13:10:00,16,28132592,195312
OK,100,52,1015,100,2014-10-01T13:15:00,17,28133039,195312
OK,110,47,1015,110,2014-10-01T13:20:00,17,28133477,195312
OK,142,36,1015,142,2014-10-01T13:25:00,15,28133926,195312
OK,152,34,1015,152,2014-10-01T13:30:00,19,28134365,195312
OK,194,26,1015,194,2014-10-01T13:35:00,22,28134814,195312
OK,195,26,1015,195,2014-10-01T13:40:00,18,28135233,195312
OK,213,24,1015,213,2014-10-01T13:45:00,13,28135682,195312
OK,246,21,1015,246,2014-10-01T13:50:00,18,28136119,195312
OK,224,23,1015,224,2014-10-01T13:55:00,21,28136568,195312
OK,154,33,1015,154,2014-10-01T14:00:00,23,28137008,195312
OK,134,39,1015,134,2014-10-01T14:05:00,23,28137457,195312
OK,118,44,1015,118,2014-10-01T14:10:00,19,28137891,195312
OK,112,46,1015,112,2014-10-01T14:15:00,15,28138340,195312
OK,132,39,1015,132,2014-10-01T14:20:00,16,28138768,195312
OK,137,38,1015,137,2014-10-01T14:25:00,18,28139217,195312
OK,122,42,1015,122,2014-10-01T14:30:00,15,28139628,195312
OK,114,45,1015,114,2014-10-01T14:35:00,16,28140077,195312
OK,107,48,1015,107,2014-10-01T14:40:00,14,28140519,195312
OK,101,51,1015,101,2014-10-01T14:45:00,15,28140968,195312
OK,101,51,1015,101,2014-10-01T14:50:00,17,28141394,195312
OK,95,55,1015,95,2014-10-01T14:55:00,11,28141843,195312
OK,123,42,1015,123,2014-10-01T15:00:00,15,28142271,195312
OK,115,45,1015,115,2014-10-01T15:05:00,19,28142720,195312
OK,113,46,1015,113,2014-10-01T15:10:00,18,28143147,195312
OK,103,50,1015,103,2014-10-01T15:15:00,15,28143596,195312
OK,104,50,1015,104,2014-10-01T15:20:00,15,28144044,195312
OK,121,43,1015,121,2014-10-01T15:25:00,17,28144493,195312
OK,117,44,1015,117,2014-10-01T15:30:00,12,28144914,195312
OK,102,51,1015,102,2014-10-01T15:35:00,10,28145328,195312
OK,107,48,1015,107,2014-10-01T15:40:00,11,28145777,195312
OK,104,50,1015,104,2014-10-01T15:45:00,9,28146226,195312
OK,89,58,1015,89,2014-10-01T15:50:00,6,28146675,195312
OK,94,55,1015,94,2014-10-01T15:55:00,4,28147083,195312
OK,109,48,1015,109,2014-10-01T16:00:00,7,28147527,195312
OK,110,47,1015,110,2014-10-01T16:05:00,9,28147976,195312
OK,97,53,1015,97,2014-10-01T16:10:00,9,28148377,195312
OK,109,48,1015,109,2014-10-01T16:20:00,5,28149265,195312
OK,101,51,1015,101,2014-10-01T16:25:00,11,28149714,195312
OK,101,51,1015,101,2014-10-01T16:30:00,12,28150140,195312
OK,102,51,1015,102,2014-10-01T16:35:00,11,28150589,195312
OK,100,52,1015,100,2014-10-01T16:40:00,7,28151007,195312
OK,106,49,1015,106,2014-10-01T16:45:00,4,28151456,195312
OK,106,49,1015,106,2014-10-01T16:50:00,4,28151905,195312
OK,96,54,1015,96,2014-10-01T17:00:00,10,28152354,195312
OK,76,68,1015,76,2014-10-01T17:05:00,4,28152800,195312
OK,71,73,1015,71,2014-10-01T17:10:00,3,28153247,195312
OK,97,53,1015,97,2014-10-01T17:15:00,3,28153696,195312
OK,100,52,1015,100,2014-10-01T17:20:00,5,28154106,195312
OK,111,47,1015,111,2014-10-01T17:25:00,6,28154555,195312
OK,77,67,1015,77,2014-10-01T17:30:00,1,28154997,195312
OK,84,62,1015,84,2014-10-01T17:35:00,4,28155445,195312
OK,84,62,1015,84,2014-10-01T17:40:00,4,28155863,195312
OK,93,56,1015,93,2014-10-01T17:45:00,2,28156312,195312
OK,94,55,1015,94,2014-10-01T17:50:00,4,28156760,195312
OK,90,58,1015,90,2014-10-01T17:55:00,2,28157199,195312
OK,80,65,1015,80,2014-10-01T18:00:00,4,28157629,195312
OK,102,51,1015,102,2014-10-01T18:05:00,7,28158077,195312
OK,83,63,1015,83,2014-10-01T18:10:00,0,28158521,195312
OK,95,55,1015,95,2014-10-01T18:15:00,2,28158967,195312
OK,110,47,1015,110,2014-10-01T18:20:00,7,28159413,195312
OK,104,50,1015,104,2014-10-01T18:25:00,8,28159748,195312
OK,97,53,1015,97,2014-10-01T18:30:00,8,28160197,195312
OK,87,60,1015,87,2014-10-01T18:35:00,9,28160646,195312
OK,91,57,1015,91,2014-10-01T18:40:00,6,28161084,195312
OK,108,48,1015,108,2014-10-01T18:45:00,0,28161533,195312
OK,108,48,1015,108,2014-10-01T18:50:00,0,28161950,195312
OK,106,49,1015,106,2014-10-01T18:55:00,1,28162399,195312
OK,93,56,1015,93,2014-10-01T19:00:00,2,28162793,195312
OK,84,62,1015,84,2014-10-01T19:05:00,2,28163232,195312
OK,91,57,1015,91,2014-10-01T19:10:00,2,28163680,195312
OK,88,59,1015,88,2014-10-01T19:15:00,7,28164129,195312
OK,106,49,1015,106,2014-10-01T19:20:00,6,28164560,195312
OK,122,42,1015,122,2014-10-01T19:25:00,3,28165009,195312
OK,106,49,1015,106,2014-10-01T19:30:00,2,28165434,195312
OK,113,46,1015,113,2014-10-01T19:35:00,3,28165882,195312
OK,103,50,1015,103,2014-10-01T19:40:00,2,28166323,195312
OK,96,54,1015,96,2014-10-01T19:45:00,2,28166685,195312
OK,100,52,1015,100,2014-10-01T19:50:00,7,28167134,195312
OK,100,52,1015,100,2014-10-01T19:55:00,9,28167563,195312
OK,85,61,1015,85,2014-10-01T20:00:00,5,28167996,195312
OK,90,58,1015,90,2014-10-01T20:05:00,6,28168445,195312
OK,102,51,1015,102,2014-10-01T20:10:00,10,28168890,195312
OK,96,54,1015,96,2014-10-01T20:15:00,8,28169339,195312
OK,88,59,1015,88,2014-10-01T20:20:00,5,28169787,195312
OK,85,61,1015,85,2014-10-01T20:25:00,4,28170213,195312
OK,100,52,1015,100,2014-10-01T20:30:00,3,28170658,195312
OK,74,70,1015,74,2014-10-01T20:35:00,6,28171106,195312
OK,71,73,1015,71,2014-10-01T20:40:00,5,28171543,195312
OK,76,68,1015,76,2014-10-01T20:45:00,0,28171989,195312
OK,76,68,1015,76,2014-10-01T20:50:00,0,28172437,195312
OK,76,68,1015,76,2014-10-01T20:55:00,0,28172883,195312
OK,76,68,1015,76,2014-10-01T21:00:00,0,28173329,195312
OK,77,67,1015,77,2014-10-01T21:05:00,2,28173778,195312
OK,79,66,1015,79,2014-10-01T21:10:00,2,28174219,195312
OK,95,55,1015,95,2014-10-01T21:15:00,1,28174668,195312
OK,76,68,1015,76,2014-10-01T21:20:00,2,28175094,195312
OK,61,85,1015,61,2014-10-01T21:25:00,1,28175490,195312
OK,61,85,1015,61,2014-10-01T21:30:00,0,28175939,195312
OK,61,85,1015,61,2014-10-01T21:35:00,0,28176388,195312
OK,61,85,1015,61,2014-10-01T21:40:00,0,28176837,195312
OK,61,85,1015,61,2014-10-01T21:45:00,0,28177193,195312
OK,61,85,1015,61,2014-10-01T21:50:00,0,28177633,195312
OK,61,85,1015,61,2014-10-01T21:55:00,0,28178079,195312
OK,61,85,1015,61,2014-10-01T22:00:00,0,28178528,195312
OK,61,85,1015,61,2014-10-01T22:05:00,0,28178975,195312
OK,61,85,1015,61,2014-10-01T22:10:00,0,28179409,195312
OK,61,85,1015,61,2014-10-01T22:15:00,0,28179852,195312
OK,61,85,1015,61,2014-10-01T22:20:00,0,28180299,195312
OK,61,85,1015,61,2014-10-01T22:25:00,0,28180697,195312
OK,61,85,1015,61,2014-10-01T22:30:00,0,28181146,195312
OK,61,85,1015,61,2014-10-01T22:35:00,0,28181570,195312
OK,61,85,1015,61,2014-10-01T22:40:00,0,28182018,195312
OK,61,85,1015,61,2014-10-01T22:45:00,0,28182465,195312
OK,61,85,1015,61,2014-10-01T22:50:00,0,28182914,195312
OK,61,85,1015,61,2014-10-01T22:55:00,0,28183331,195312
OK,61,85,1015,61,2014-10-01T23:00:00,0,28183764,195312
OK,73,71,1015,73,2014-10-01T23:05:00,1,28184209,195312
OK,73,71,1015,73,2014-10-01T23:10:00,0,28184658,195312
OK,73,71,1015,73,2014-10-01T23:15:00,0,28185093,195312
OK,73,71,1015,73,2014-10-01T23:20:00,0,28185541,195312
OK,73,71,1015,73,2014-10-01T23:25:00,0,28185972,195312
OK,73,71,1015,73,2014-10-01T23:30:00,0,28186364,195312
OK,73,71,1015,73,2014-10-01T23:40:00,0,28187211,195312
OK,73,71,1015,73,2014-10-01T23:55:00,0,28188543,195312
OK,73,71,1015,73,2014-10-02T00:05:00,0,28189428,195312
OK,73,71,1015,73,2014-10-02T00:10:00,0,28189850,195312
OK,73,71,1015,73,2014-10-02T00:15:00,0,28190299,195312
OK,73,71,1015,73,2014-10-02T00:20:00,0,28190652,195312
OK,73,71,1015,73,2014-10-02T00:30:00,0,28191550,195312
OK,73,71,1015,73,2014-10-02T00:35:00,0,28191856,195312
OK,73,71,1015,73,2014-10-02T00:45:00,0,28192738,195312
OK,73,71,1015,73,2014-10-02T00:50:00,0,28193182,195312
OK,73,71,1015,73,2014-10-02T00:55:00,0,28193549,195312
OK,73,71,1015,73,2014-10-02T01:05:00,0,28194447,195312
OK,73,71,1015,73,2014-10-02T01:10:00,0,28194896,195312
OK,73,71,1015,73,2014-10-02T01:15:00,0,28195132,195312
OK,73,71,1015,73,2014-10-02T01:25:00,0,28196030,195312
OK,73,71,1015,73,2014-10-02T01:30:00,0,28196314,195312
OK,73,71,1015,73,2014-10-02T01:35:00,0,28196763,195312
OK,73,71,1015,73,2014-10-02T01:40:00,0,28197186,195312
OK,73,71,1015,73,2014-10-02T01:45:00,0,28197635,195312
OK,73,71,1015,73,2014-10-02T01:50:00,0,28198083,195312
OK,73,71,1015,73,2014-10-02T01:55:00,0,28198531,195312
OK,73,71,1015,73,2014-10-02T02:00:00,0,28198980,195312
OK,73,71,1015,73,2014-10-02T02:05:00,0,28199352,195312
OK,73,71,1015,73,2014-10-02T02:10:00,0,28199794,195312
OK,73,71,1015,73,2014-10-02T02:15:00,0,28200236,195312
OK,73,71,1015,73,2014-10-02T02:20:00,0,28200679,195312
OK,73,71,1015,73,2014-10-02T02:25:00,0,28201128,195312
OK,73,71,1015,73,2014-10-02T02:30:00,0,28201559,195312
OK,73,71,1015,73,2014-10-02T02:45:00,0,28202457,195312
OK,73,71,1015,73,2014-10-02T02:50:00,0,28202899,195312
OK,73,71,1015,73,2014-10-02T02:55:00,0,28203347,195312
OK,73,71,1015,73,2014-10-02T03:00:00,0,28203782,195312
OK,73,71,1015,73,2014-10-02T03:10:00,0,28204231,195312
OK,55,95,1015,55,2014-10-02T03:25:00,2,28204680,195312
OK,54,96,1015,54,2014-10-02T03:30:00,0,28205129,195312
OK,69,75,1015,69,2014-10-02T03:35:00,3,28205557,195312
OK,61,85,1015,61,2014-10-02T03:40:00,0,28206004,195312
OK,85,61,1015,85,2014-10-02T03:45:00,1,28206387,195312
OK,85,61,1015,85,2014-10-02T03:55:00,0,28207285,195312
OK,85,61,1015,85,2014-10-02T04:00:00,0,28207704,195312
OK,85,61,1015,85,2014-10-02T04:05:00,0,28208153,195312
OK,93,56,1015,93,2014-10-02T04:10:00,2,28208580,195312
OK,93,56,1015,93,2014-10-02T04:15:00,0,28209029,195312
OK,86,60,1015,86,2014-10-02T04:20:00,4,28209467,195312
OK,62,84,1015,62,2014-10-02T04:25:00,1,28209916,195312
OK,91,57,1015,91,2014-10-02T04:30:00,8,28210339,195312
OK,91,57,1015,91,2014-10-02T04:35:00,7,28210788,195312
OK,121,43,1015,121,2014-10-02T04:40:00,5,28211213,195312
OK,125,41,1015,125,2014-10-02T04:45:00,3,28211657,195312
OK,125,41,1015,125,2014-10-02T04:50:00,0,28212035,195312
OK,104,50,1015,104,2014-10-02T05:00:00,2,28212913,195312
OK,96,54,1015,96,2014-10-02T05:05:00,10,28213362,195312
OK,109,48,1015,109,2014-10-02T05:10:00,1,28213800,195312
OK,107,48,1015,107,2014-10-02T05:15:00,4,28214249,195312
OK,109,48,1015,109,2014-10-02T05:20:00,1,28214662,195312
OK,119,43,1015,119,2014-10-02T05:25:00,14,28215111,195312
OK,127,41,1015,127,2014-10-02T05:30:00,1,28215527,195312
OK,127,41,1015,127,2014-10-02T05:35:00,0,28215976,195312
OK,118,44,1015,118,2014-10-02T05:40:00,6,28216315,195312
OK,128,40,1015,128,2014-10-02T05:45:00,2,28216755,195312
OK,145,36,1015,145,2014-10-02T05:50:00,0,28217202,195312
OK,124,42,1015,124,2014-10-02T05:55:00,14,28217651,195312
OK,117,44,1015,117,2014-10-02T06:00:00,13,28218090,195312
OK,114,45,1015,114,2014-10-02T06:05:00,8,28218539,195312
OK,103,50,1015,103,2014-10-02T06:10:00,2,28218959,195312
OK,108,48,1015,108,2014-10-02T06:15:00,12,28219408,195312
OK,98,53,1015,98,2014-10-02T06:20:00,9,28219781,195312
OK,105,49,1015,105,2014-10-02T06:30:00,12,28220664,195312
OK,107,48,1015,107,2014-10-02T06:35:00,11,28221113,195312
OK,107,48,1015,107,2014-10-02T06:40:00,9,28221494,195312
OK,92,56,1015,92,2014-10-02T06:45:00,6,28221780,195312
OK,101,51,1015,101,2014-10-02T07:00:00,10,28222374,195312
OK,79,66,1015,79,2014-10-02T07:10:00,3,28223254,195312
OK,79,66,1015,79,2014-10-02T07:15:00,1,28223689,195312
OK,79,66,1015,79,2014-10-02T07:20:00,0,28224137,195312
OK,84,62,1015,84,2014-10-02T07:25:00,7,28224492,195312
OK,80,65,1015,80,2014-10-02T07:30:00,3,28224941,195312
OK,107,48,1015,107,2014-10-02T07:35:00,2,28225390,195312
OK,107,48,1015,107,2014-10-02T07:40:00,1,28225712,195312
OK,92,56,1015,92,2014-10-02T07:50:00,8,28226602,195312
OK,92,56,1015,92,2014-10-02T07:55:00,6,28227051,195312
OK,99,52,1015,99,2014-10-02T08:00:00,2,28227466,195312
OK,82,63,1015,82,2014-10-02T08:05:00,7,28227915,195312
OK,81,64,1015,81,2014-10-02T08:10:00,4,28228274,195312
OK,75,69,1015,75,2014-10-02T08:20:00,3,28229133,195312
OK,101,51,1015,101,2014-10-02T08:25:00,7,28229582,195312
OK,113,46,1015,113,2014-10-02T08:30:00,0,28229932,195312
OK,98,53,1015,98,2014-10-02T08:35:00,9,28230381,195312
OK,115,45,1015,115,2014-10-02T08:40:00,6,28230747,195312
OK,116,45,1015,116,2014-10-02T08:45:00,0,28231195,195312
OK,101,51,1015,101,2014-10-02T08:50:00,4,28231619,195312
OK,101,51,1015,101,2014-10-02T08:55:00,2,28232068,195312
OK,94,55,1015,94,2014-10-02T09:00:00,7,28232410,195312
OK,88,59,1015,88,2014-10-02T09:10:00,0,28232859,195312
OK,111,47,1015,111,2014-10-02T09:15:00,13,28233308,195312
OK,104,50,1015,104,2014-10-02T09:20:00,8,28233732,195312
OK,86,60,1015,86,2014-10-02T09:25:00,0,28234181,195312
OK,86,60,1015,86,2014-10-02T09:30:00,0,28234514,195312
OK,103,50,1015,103,2014-10-02T09:40:00,6,28235390,195312
OK,95,55,1015,95,2014-10-02T09:45:00,8,28235839,195312
OK,95,55,1015,95,2014-10-02T09:50:00,2,28236282,195312
OK,123,42,1015,123,2014-10-02T09:55:00,6,28236729,195312
OK,175,29,1015,175,2014-10-02T10:00:00,3,28237132,195312
OK,127,41,1015,127,2014-10-02T10:05:00,0,28237580,195312
OK,100,52,1015,100,2014-10-02T10:10:00,9,28238028,195312
OK,100,52,1015,100,2014-10-02T10:15:00,11,28238475,195312
OK,103,50,1015,103,2014-10-02T10:20:00,8,28238916,195312
OK,108,48,1015,108,2014-10-02T10:25:00,3,28239365,195312
OK,156,33,1015,156,2014-10-02T10:30:00,0,28239795,195312
OK,98,53,1015,98,2014-10-02T10:35:00,8,28240244,195312
OK,94,55,1015,94,2014-10-02T10:40:00,7,28240688,195312
OK,89,58,1015,89,2014-10-02T10:45:00,7,28241137,195312
OK,87,60,1015,87,2014-10-02T10:50:00,3,28241569,195312
OK,107,48,1015,107,2014-10-02T10:55:00,10,28242017,195312
OK,96,54,1015,96,2014-10-02T11:00:00,2,28242413,195312
OK,82,63,1015,82,2014-10-02T11:05:00,0,28242862,195312
OK,104,50,1015,104,2014-10-02T11:10:00,9,28243311,195312
OK,105,49,1015,105,2014-10-02T11:15:00,7,28243636,195312
OK,108,48,1015,108,2014-10-02T11:20:00,6,28244074,195312
OK,125,41,1015,125,2014-10-02T11:25:00,5,28244503,195312
OK,79,66,1015,79,2014-10-02T11:30:00,0,28244952,195312
OK,93,56,1015,93,2014-10-02T11:35:00,9,28245401,195312
OK,91,57,1015,91,2014-10-02T11:40:00,4,28245807,195312
OK,89,58,1015,89,2014-10-02T11:45:00,0,28246256,195312
OK,110,47,1015,110,2014-10-02T11:50:00,9,28246693,195312
OK,101,51,1015,101,2014-10-02T11:55:00,8,28247142,195312
OK,103,50,1015,103,2014-10-02T12:00:00,13,28247588,195312
OK,103,50,1015,103,2014-10-02T12:05:00,9,28248018,195312
OK,95,55,1015,95,2014-10-02T12:10:00,0,28248467,195312
OK,128,40,1015,128,2014-10-02T12:15:00,8,28248914,195312
OK,85,61,1015,85,2014-10-02T12:20:00,1,28249342,195312
OK,99,52,1015,99,2014-10-02T12:25:00,8,28249786,195312
OK,98,53,1015,98,2014-10-02T12:30:00,4,28250205,195312
OK,114,45,1015,114,2014-10-02T12:35:00,11,28250603,195312
OK,147,35,1015,147,2014-10-02T13:20:00,13,28251928,195312
OK,126,41,1015,126,2014-10-02T13:30:00,15,28252512,195312
OK,123,42,1015,123,2014-10-02T13:35:00,7,28252954,195312
OK,123,42,1015,123,2014-10-02T13:40:00,0,28253371,195312
OK,114,45,1015,114,2014-10-02T13:50:00,14,28254225,195312
OK,145,36,1015,145,2014-10-02T13:55:00,31,28254546,195312
OK,117,44,1015,117,2014-10-02T14:10:00,12,28255123,195312
OK,184,28,1015,184,2014-10-02T14:15:00,16,28255572,195312
OK,259,20,1015,259,2014-10-02T14:20:00,11,28256000,195312
OK,355,14,1015,355,2014-10-02T14:25:00,2,28256449,195312
OK,450,11,1015,450,2014-10-02T14:30:00,25,28256877,195312
OK,445,11,1015,445,2014-10-02T14:35:00,27,28257326,195312
OK,394,13,1015,394,2014-10-02T14:40:00,7,28257767,195312
OK,387,13,1015,387,2014-10-02T14:45:00,22,28258215,195312
OK,306,17,1015,306,2014-10-02T14:50:00,23,28258648,195312
OK,183,28,1015,183,2014-10-02T14:55:00,17,28259094,195312
OK,137,38,1015,137,2014-10-02T15:00:00,10,28259543,195312
OK,112,46,1015,112,2014-10-02T15:05:00,12,28259990,195312
OK,104,50,1015,104,2014-10-02T15:10:00,12,28260423,195312
OK,118,44,1015,118,2014-10-02T15:15:00,12,28260872,195312
OK,110,47,1015,110,2014-10-02T15:20:00,3,28261312,195312
OK,114,45,1015,114,2014-10-02T15:25:00,15,28261694,195312
OK,115,45,1015,115,2014-10-02T15:30:00,8,28262124,195312
OK,99,52,1015,99,2014-10-02T15:40:00,3,28263017,195312
OK,108,48,1015,108,2014-10-02T15:45:00,7,28263455,195312
OK,129,40,1015,129,2014-10-02T15:50:00,1,28263896,195312
OK,129,40,1015,129,2014-10-02T15:55:00,0,28264298,195312
OK,113,46,1015,113,2014-10-02T16:00:00,13,28264747,195312